SPAINSAT NG1

导读 | 星芒AI

SPAINSAT NG1 是西班牙国防卫星通信系统的一部分,由空中客车防务与航天公司建造,旨在提供安全、高带宽的军事通信能力。该卫星于2022年发射,运行在地球同步轨道,支持语音、数据和视频传输,增强西班牙及其北约盟国的作战通信能力。SPAINSAT NG1 采用先进加密技术,确保通信安全,是西班牙现代化国防战略的重要组成部分。

基本信息
目录编号:
62852
目录名称:
SPAINSAT NG1
国际标识:
2025-021A
轨道中心:
EARTH
卫星名称:
SPAINSAT NG1
卫星全名:
SPAINSAT NG1
卫星状态:
在轨 (已飞行319 天)
发射日期:
2025-01-30 UTC
国别 :
西班牙 (ES)
星等 :
--
轨道信息
数据来源 国际轨道数据 AOE轨道数据
星历时间 2025-12-12T14:46:20+0800
3天前
查看轨道信息
2025-12-12T11:00:00+0800
3天前
查看轨道信息
半长轴 42302.598km 42302.627km
偏心率 0.0002813 0.0002679
轨道倾角 0.292° 0.291°
近地点辐角 218.480° 218.123°
升交点赤经 87.027° 87.003°
平近点角 266.703° 210.623°
近地点 35912.563km 35913.159km
远地点 35936.363km 35935.825km
周期 1443.146分钟 1443.148分钟
每日圈数 0.99782 0.997819
详细信息
使用方式:
暂无
2D轨道图
3D轨道图
轨道高度分析图
轨道倾角分析图
轨道综合分析图
查看轨道综合分析图